Location: Goudex
(43.3760°N, 0.9543°E)
Time: 15:19:04
(UTC+00:00)

SL-4 R/B - Pass Details

Date: 20 November 2019
Orbit: 428 x 667 km, 51.6° (Epoch: 05 December)

Event Time Altitude Azimuth Distance (km) Brightness Sun altitude
Exits shadow 03:42:32 25° 71° (ENE) 1,350 4.5 -34.8°
Drops below altitude 10° 03:44:48 10° 88° (E) 2,088 5.8 -34.4°
Sets 03:47:16 0° 96° (E) 2,992 6.8 -33.9°
